STARLINK-4643, 54824

Orbit data source: Space-Track

STARLINK-4643, 54824 is a payload satellite owned by SpaceX/Seattle (US) in LEO that was launched on Wed, 28 Dec 2022 UTC via an FALCON 9 launch vehicle from the Air Force Eastern Test Range (AFETR). Payload-class satellites include a variety of spacecraft equipped with specific instruments for various scientific and technological missions. These include communications satellites like Starlink; space stations such as the ISS; scientific satellites like the Hubble; Earth observation satellites from companies like Planet Labs, Umbra, and HawkEye 360; GPS; miniature CubeSats for education and research; and military/defense satellites.

Loading next visibility...
Identifier
54824, 2022-177E
Orbit
LEO
Country
Flag of USUS
Related business
Manufacturer
SpaceX/Seattle
Mission
Operational Commercial Communications
Bus & Motor
STARLINK, Unknown motor
Mass
305 kg wet, ~290 kg dry
Launch date (UTC)
2022-12-28 (3 years ago)
Launch vehicle
FALCON 9
Launch site
Air Force Eastern Test Range (AFETR)
Object type
Payload
Rocket body
Debris
Shape & HBR
Box + 1 Pan, 10.1 m
Radar Cross Section
13.562 m², Large (>1 m²)

Expand to show TLE details & history
Last TLE update: 2 days ago

TLE from 2 days ago
0 STARLINK-4643
1 54824U 22177E   26171.33903616  .00000718  00000-0  35640-4 0  9998
2 54824  43.0043 276.2369 0001587 284.8471  75.2205 15.27577512192622
Epoch: 2026-06-20T08:08Z
TLE epoch observation values (Epoch: 2026-06-20T08:08:12.724Z)
Latitude
Longitude
-114.3712°
Altitude
482.555 km
Speed
7.626 km/s
True Right ascension
18h 24m 56s
True Declination
0° 00' 00"
Sunlit
Object was in full shadow at epoch
Visualization orbit readout
Latitude
Unknown
Longitude
Unknown
Altitude
Unknown
Speed
Unknown
Apparent Right ascension
Unknown
Apparent Declination
Unknown
Sunlit
N/A
Visualization observer readout
Local Sidereal Time
21:24:11
Azimuth
Unknown
Elevation
Unknown
Doppler factor
Unknown
Orbital elements
Apogee altitude
486.09 km
Perigee altitude
483.912 km
Semi-major axis
6,863.138 km
Eccentricity
0.00016
Inclination
43.0043°
RAAN
276.2369°
Arg. of periapsis
284.8471°
True anomaly
75.23808°
Mean anomaly
75.2205°
Eccentric anomaly
75.22929°
Mean motion
3.81732 °/min
Orbital period
94.31 mins
BSTAR
0.00003564
Loading maneuver chart data...
Computing Atmospheric mass density...
Loading historical data...
Loading historical data...
Loading historical data...
Loading historical data...
Loading historical data...
Loading historical data...
Loading historical data...

Documentation

Showing up to 5 results
|